Caldwell, ID

5:23 AM MDT on March 25, 2017 (GMT -0600)
Caldwell Industrial

Weather History for KEUL - April, 2014

Change the Weather History Date:

Tuesday, April 29, 2014

  Actual Average (KBOI) Record (KBOI)
Temperature  
Mean Temperature 48 °F -  
Max Temperature 64 °F 64 °F 89 °F (1992)
Min Temperature 33 °F 39 °F 27 °F (1954)
Degree Days  
Heating Degree Days 16    
Moisture  
Dew Point 26 °F    
Average Humidity 45    
Maximum Humidity 70    
Minimum Humidity 21    
Precipitation  
Precipitation 0.00 in - - ()
Sea Level Pressure  
Sea Level Pressure 30.51 in    
Wind  
Wind Speed 4 mph (NW)    
Max Wind Speed 14 mph    
Max Gust Speed 21 mph    
Visibility 10 miles    
Events      
Averages and records for this station are not official NWS values.
T = Trace of Precipitation, MM = Missing Value Source: NWS Daily Summary

Daily Weather History Graph

Daily Weather History Graph

Search for Another Location

Airport or City:

Trip Planner

Search our weather history database for the weather conditions in past years. The results will help you decide how hot, cold, wet, or windy it might be!

Date:

Astronomy

Apr. 29, 2014 Rise Set
Actual Time 6:41 AM MDT 8:46 PM MDT
Civil Twilight 6:10 AM MDT 9:18 PM MDT
Nautical Twilight 5:32 AM MDT 9:56 PM MDT
Astronomical Twilight 4:50 AM MDT 10:39 PM MDT
Moon 7:03 AM MDT (4/29) 9:32 PM MDT (4/29)
Length of Visible Light 15h 07m
Length of Day
14h 05m
New Moon, 0% of the Moon is Illuminated
Apr 29
New Moon
May 6
First Quarter
May 14
Full
May 21
Last Quarter
May 28
New

Hourly Weather History & Observations

Time (MDT) Temp. Windchill Dew Point Humidity Pressure Visibility Wind Dir Wind Speed Gust Speed Precip Events Conditions
12:15 AM 41.0 °F 39.0 °F 24.8 °F 53% 30.42 in 10.0 mi SW 3.5 mph - N/A   Clear
12:35 AM 42.8 °F - 26.6 °F 53% 30.43 in 10.0 mi Calm Calm - N/A   Clear
12:55 AM 39.2 °F - 24.8 °F 56% 30.43 in 10.0 mi Calm Calm - N/A   Clear
1:15 AM 37.4 °F - 26.6 °F 65% 30.44 in 10.0 mi Calm Calm - N/A   Clear
1:35 AM 37.4 °F - 26.6 °F 65% 30.45 in 10.0 mi Calm Calm - N/A   Clear
1:55 AM 37.4 °F - 24.8 °F 60% 30.46 in 10.0 mi Calm Calm - N/A   Clear
2:15 AM 37.4 °F 34.9 °F 24.8 °F 60% 30.46 in 10.0 mi North 3.5 mph - N/A   Clear
2:35 AM 35.6 °F - 24.8 °F 65% 30.47 in 10.0 mi Calm Calm - N/A   Clear
2:55 AM 35.6 °F - 24.8 °F 65% 30.47 in 10.0 mi Calm Calm - N/A   Clear
3:15 AM 35.6 °F - 26.6 °F 70% 30.47 in 10.0 mi Calm Calm - N/A   Clear
3:35 AM 35.6 °F - 24.8 °F 65% 30.48 in 10.0 mi Calm Calm - N/A   Clear
3:55 AM 33.8 °F 29.6 °F 24.8 °F 70% 30.48 in 10.0 mi NE 4.6 mph - N/A   Clear
4:15 AM 33.8 °F - 23.0 °F 65% 30.48 in 10.0 mi Calm Calm - N/A   Clear
4:35 AM 33.8 °F - 24.8 °F 70% 30.49 in 10.0 mi Calm Calm - N/A   Clear
4:55 AM 35.6 °F 32.8 °F 24.8 °F 65% 30.50 in 10.0 mi West 3.5 mph - N/A   Clear
5:15 AM 33.8 °F - 24.8 °F 70% 30.50 in 10.0 mi Calm Calm - N/A   Clear
5:35 AM 33.8 °F - 23.0 °F 65% 30.51 in 10.0 mi Calm Calm - N/A   Clear
5:55 AM 33.8 °F 30.8 °F 23.0 °F 65% 30.51 in 10.0 mi NW 3.5 mph - N/A   Clear
6:15 AM 33.8 °F 30.8 °F 23.0 °F 65% 30.51 in 10.0 mi WNW 3.5 mph - N/A   Clear
6:35 AM 33.8 °F - 24.8 °F 70% 30.52 in 10.0 mi Calm Calm - N/A   Clear
6:55 AM 33.8 °F 30.8 °F 23.0 °F 65% 30.53 in 10.0 mi West 3.5 mph - N/A   Clear
7:15 AM 33.8 °F 30.8 °F 23.0 °F 65% 30.54 in 10.0 mi West 3.5 mph - N/A   Clear
7:35 AM 33.8 °F 28.6 °F 24.8 °F 70% 30.55 in 10.0 mi WNW 5.8 mph - N/A   Clear
7:55 AM 33.8 °F 28.6 °F 24.8 °F 70% 30.56 in 10.0 mi WNW 5.8 mph - N/A   Clear
8:15 AM 37.4 °F 34.9 °F 26.6 °F 65% 30.56 in 10.0 mi NW 3.5 mph - N/A   Clear
8:35 AM 39.2 °F 35.0 °F 28.4 °F 65% 30.57 in 10.0 mi NW 5.8 mph - N/A   Clear
8:55 AM 39.2 °F 34.2 °F 28.4 °F 65% 30.58 in 10.0 mi WNW 6.9 mph - N/A   Clear
9:15 AM 42.8 °F 38.6 °F 28.4 °F 57% 30.59 in 10.0 mi WNW 6.9 mph - N/A   Clear
9:35 AM 44.6 °F 40.2 °F 28.4 °F 53% 30.59 in 10.0 mi WNW 8.1 mph - N/A   Clear
9:55 AM 46.4 °F 41.5 °F 28.4 °F 50% 30.59 in 10.0 mi NW 10.4 mph - N/A   Clear
10:15 AM 48.2 °F - 28.4 °F 46% 30.59 in 10.0 mi WNW 10.4 mph - N/A   Clear
10:35 AM 50.0 °F - 26.6 °F 40% 30.59 in 10.0 mi NW 9.2 mph - N/A   Clear
10:55 AM 50.0 °F - 26.6 °F 40% 30.59 in 10.0 mi WNW 8.1 mph - N/A   Clear
11:15 AM 51.8 °F - 26.6 °F 38% 30.59 in 10.0 mi NW 6.9 mph - N/A   Clear
11:35 AM 53.6 °F - 28.4 °F 38% 30.59 in 10.0 mi West 5.8 mph - N/A   Clear
11:55 AM 53.6 °F - 28.4 °F 38% 30.59 in 10.0 mi NW 11.5 mph - N/A   Clear
12:15 PM 55.4 °F - 28.4 °F 36% 30.58 in 10.0 mi West 10.4 mph - N/A   Clear
12:35 PM 55.4 °F - 28.4 °F 36% 30.57 in 10.0 mi WNW 11.5 mph - N/A   Clear
12:55 PM 57.2 °F - 28.4 °F 33% 30.57 in 10.0 mi NW 10.4 mph - N/A   Clear
1:15 PM 57.2 °F - 28.4 °F 33% 30.57 in 10.0 mi NW 13.8 mph 20.7 mph N/A   Clear
1:35 PM 59.0 °F - 28.4 °F 31% 30.56 in 10.0 mi WNW 12.7 mph 17.3 mph N/A   Clear
1:55 PM 60.8 °F - 28.4 °F 29% 30.55 in 10.0 mi NW 11.5 mph 18.4 mph N/A   Clear
2:15 PM 60.8 °F - 26.6 °F 27% 30.55 in 10.0 mi NW 11.5 mph 18.4 mph N/A   Clear
2:35 PM 60.8 °F - 26.6 °F 27% 30.54 in 10.0 mi NNW 9.2 mph - N/A   Clear
3:15 PM 62.6 °F - 24.8 °F 24% 30.54 in 10.0 mi NW 8.1 mph - N/A   Clear
3:35 PM 62.6 °F - 24.8 °F 24% 30.53 in 10.0 mi NNW 9.2 mph - N/A   Clear
3:55 PM 62.6 °F - 24.8 °F 24% 30.52 in 10.0 mi NW 11.5 mph - N/A   Clear
4:15 PM 62.6 °F - 24.8 °F 24% 30.52 in 10.0 mi NW 8.1 mph 17.3 mph N/A   Clear
4:35 PM 64.4 °F - 24.8 °F 22% 30.51 in 10.0 mi North 10.4 mph - N/A   Clear
4:55 PM 64.4 °F - 24.8 °F 22% 30.51 in 10.0 mi NNW 9.2 mph - N/A   Clear
5:15 PM 64.4 °F - 24.8 °F 22% 30.50 in 9.0 mi NNW 6.9 mph - N/A   Clear
5:35 PM 64.4 °F - 24.8 °F 22% 30.50 in 10.0 mi NNW 6.9 mph - N/A   Clear
5:55 PM 64.4 °F - 24.8 °F 22% 30.50 in 10.0 mi NNE 4.6 mph - N/A   Clear
6:15 PM 64.4 °F - 24.8 °F 22% 30.49 in 10.0 mi NNW 9.2 mph - N/A   Clear
6:35 PM 64.4 °F - 23.0 °F 21% 30.49 in 10.0 mi NW 8.1 mph - N/A   Clear
6:55 PM 64.4 °F - 23.0 °F 21% 30.48 in 10.0 mi NW 5.8 mph - N/A   Clear
7:15 PM 64.4 °F - 23.0 °F 21% 30.48 in 10.0 mi NW 6.9 mph - N/A   Clear
7:35 PM 62.6 °F - 24.8 °F 24% 30.47 in 10.0 mi NW 8.1 mph - N/A   Clear
7:55 PM 62.6 °F - 24.8 °F 24% 30.47 in 10.0 mi NNW 8.1 mph - N/A   Clear
8:15 PM 60.8 °F - 26.6 °F 27% 30.47 in 10.0 mi WNW 5.8 mph - N/A   Clear
8:35 PM 57.2 °F - 26.6 °F 31% 30.47 in 10.0 mi WNW 6.9 mph - N/A   Clear
8:55 PM 59.0 °F - 24.8 °F 27% 30.47 in 10.0 mi West 4.6 mph - N/A   Clear
9:15 PM 57.2 °F - 26.6 °F 31% 30.47 in 10.0 mi WSW 4.6 mph - N/A   Clear
9:35 PM 55.4 °F - 26.6 °F 33% 30.47 in 10.0 mi West 4.6 mph - N/A   Clear
9:55 PM 55.4 °F - 26.6 °F 33% 30.48 in 10.0 mi West 3.5 mph - N/A   Clear
10:15 PM 53.6 °F - 26.6 °F 35% 30.48 in 10.0 mi SW 3.5 mph - N/A   Clear
10:35 PM 53.6 °F - 26.6 °F 35% 30.48 in 10.0 mi WSW 4.6 mph - N/A   Clear
10:55 PM 51.8 °F - 26.6 °F 38% 30.48 in 10.0 mi West 4.6 mph - N/A   Clear
11:15 PM 51.8 °F - 26.6 °F 38% 30.49 in 10.0 mi Calm Calm - N/A   Clear
11:35 PM 46.4 °F 44.3 °F 28.4 °F 50% 30.49 in 10.0 mi NE 4.6 mph - N/A   Clear
11:55 PM 44.6 °F 42.2 °F 28.4 °F 53% 30.49 in 10.0 mi NE 4.6 mph - N/A   Clear